Time,TemperatureF,DewpointF,PressureIn,WindDirection,WindDirectionDegrees,WindSpeedMPH,WindSpeedGustMPH,Humidity,HourlyPrecipIn,Conditions,Clouds,dailyrainin,SoftwareType,DateUTC
2013-02-22 00:02:00,41.0,37.0,30.35,WSW,252,0.0,0.0,86,0.05,,,0.05,,2013-02-22 05:02:00,
2013-02-22 00:12:00,41.0,37.0,30.35,WSW,252,0.0,0.0,86,0.05,,,0.05,,2013-02-22 05:12:00,
2013-02-22 00:22:00,41.0,38.0,30.38,WSW,252,0.0,0.0,88,0.04,,,0.05,,2013-02-22 05:22:00,
2013-02-22 00:32:00,41.0,38.0,30.34,WSW,252,0.0,1.0,89,0.05,,,0.07,,2013-02-22 05:32:00,
2013-02-22 00:42:00,41.0,38.0,30.34,WSW,252,0.0,1.0,89,0.05,,,0.07,,2013-02-22 05:42:00,
2013-02-22 00:52:00,41.0,37.0,30.34,WSW,257,0.0,2.0,86,0.06,,,0.10,,2013-02-22 05:52:00,
2013-02-22 01:01:00,41.0,37.0,30.34,SW,225,0.0,3.0,85,0.06,,,0.11,,2013-02-22 06:01:00,
2013-02-22 01:12:00,41.0,37.0,30.34,SW,225,0.0,3.0,85,0.06,,,0.11,,2013-02-22 06:12:00,
2013-02-22 01:22:00,40.0,37.0,30.37,SW,225,0.0,0.0,88,0.09,,,0.14,,2013-02-22 06:22:00,
2013-02-22 01:32:00,40.0,37.0,30.35,SW,225,0.0,0.0,88,0.12,,,0.18,,2013-02-22 06:32:00,
2013-02-22 01:42:00,40.0,37.0,30.35,SW,225,0.0,0.0,88,0.12,,,0.18,,2013-02-22 06:42:00,
2013-02-22 01:52:00,40.0,37.0,30.35,SW,225,0.0,1.0,89,0.11,,,0.21,,2013-02-22 06:52:00,
2013-02-22 02:01:00,40.0,37.0,30.37,SW,221,0.0,2.0,90,0.11,,,0.22,,2013-02-22 07:01:00,
2013-02-22 02:11:00,39.0,36.0,30.40,SW,221,0.0,0.0,90,0.11,,,0.25,,2013-02-22 07:11:00,
2013-02-22 02:22:00,39.0,36.0,30.40,SW,221,0.0,0.0,90,0.11,,,0.25,,2013-02-22 07:22:00,
2013-02-22 02:32:00,39.0,36.0,30.41,SW,221,0.0,1.0,90,0.09,,,0.27,,2013-02-22 07:32:00,
2013-02-22 02:42:00,39.0,36.0,30.38,SW,221,0.0,1.0,90,0.09,,,0.30,,2013-02-22 07:42:00,
2013-02-22 02:52:00,39.0,36.0,30.38,SW,221,0.0,1.0,90,0.09,,,0.30,,2013-02-22 07:52:00,
2013-02-22 03:01:00,39.0,37.0,30.36,SW,221,0.0,1.0,91,0.08,,,0.30,,2013-02-22 08:01:00,
2013-02-22 03:11:00,38.0,36.0,30.36,SW,221,0.0,1.0,91,0.07,,,0.32,,2013-02-22 08:11:00,
2013-02-22 03:21:00,38.0,36.0,30.36,SW,221,0.0,1.0,91,0.07,,,0.32,,2013-02-22 08:21:00,
2013-02-22 03:31:00,38.0,36.0,30.35,SW,221,0.0,1.0,91,0.06,,,0.33,,2013-02-22 08:31:00,
2013-02-22 03:42:00,38.0,36.0,30.35,SW,221,0.0,1.0,91,0.06,,,0.33,,2013-02-22 08:42:00,
2013-02-22 03:52:00,38.0,36.0,30.32,SW,222,1.0,5.0,91,0.06,,,0.36,,2013-02-22 08:52:00,
2013-02-22 04:03:00,38.0,36.0,30.33,SW,227,0.0,3.0,91,0.07,,,0.37,,2013-02-22 09:03:00,
2013-02-22 04:11:00,38.0,36.0,30.32,WSW,256,0.0,1.0,92,0.06,,,0.38,,2013-02-22 09:11:00,
2013-02-22 04:21:00,38.0,36.0,30.32,WSW,256,0.0,1.0,92,0.06,,,0.38,,2013-02-22 09:21:00,
2013-02-22 04:32:00,38.0,36.0,30.32,SW,215,0.0,4.0,92,0.05,,,0.38,,2013-02-22 09:32:00,
2013-02-22 04:42:00,38.0,36.0,30.33,SW,219,0.0,0.0,92,0.04,,,0.40,,2013-02-22 09:42:00,
2013-02-22 04:52:00,38.0,36.0,30.33,SW,219,0.0,0.0,92,0.04,,,0.40,,2013-02-22 09:52:00,
2013-02-22 05:01:00,38.0,36.0,30.32,SW,220,0.0,1.0,92,0.04,,,0.41,,2013-02-22 10:01:00,
2013-02-22 05:11:00,38.0,36.0,30.32,SW,220,0.0,1.0,92,0.04,,,0.41,,2013-02-22 10:11:00,
2013-02-22 05:21:00,38.0,36.0,30.32,SW,221,0.0,3.0,92,0.05,,,0.43,,2013-02-22 10:21:00,
2013-02-22 05:32:00,38.0,36.0,30.32,East,92,0.0,1.0,92,0.05,,,0.43,,2013-02-22 10:32:00,
2013-02-22 05:42:00,38.0,36.0,30.32,East,92,0.0,1.0,92,0.05,,,0.43,,2013-02-22 10:42:00,
2013-02-22 05:52:00,38.0,36.0,30.35,WSW,253,0.0,1.0,92,0.05,,,0.45,,2013-02-22 10:52:00,
2013-02-22 06:01:00,38.0,36.0,30.33,WSW,253,0.0,0.0,92,0.04,,,0.45,,2013-02-22 11:01:00,
2013-02-22 06:11:00,38.0,36.0,30.33,WSW,253,0.0,0.0,92,0.04,,,0.45,,2013-02-22 11:11:00,
2013-02-22 06:22:00,38.0,36.0,30.34,West,259,0.0,1.0,92,0.04,,,0.47,,2013-02-22 11:22:00,
2013-02-22 06:32:00,38.0,36.0,30.34,WSW,241,0.0,1.0,92,0.04,,,0.47,,2013-02-22 11:32:00,
2013-02-22 06:42:00,38.0,36.0,30.34,WSW,241,0.0,1.0,92,0.04,,,0.47,,2013-02-22 11:42:00,
2013-02-22 06:52:00,38.0,36.0,30.35,WSW,241,0.0,0.0,93,0.03,,,0.48,,2013-02-22 11:52:00,
2013-02-22 07:02:00,38.0,36.0,30.37,WSW,241,0.0,0.0,93,0.03,,,0.48,,2013-02-22 12:02:00,
2013-02-22 07:11:00,38.0,36.0,30.37,WSW,241,0.0,0.0,93,0.03,,,0.48,,2013-02-22 12:11:00,
2013-02-22 07:22:00,38.0,36.0,30.36,WSW,241,0.0,0.0,93,0.01,,,0.48,,2013-02-22 12:22:00,
2013-02-22 07:32:00,38.0,36.0,30.35,WSW,241,0.0,0.0,93,0.01,,,0.48,,2013-02-22 12:32:00,
2013-02-22 07:42:00,38.0,36.0,30.35,WSW,241,0.0,0.0,93,0.01,,,0.48,,2013-02-22 12:42:00,
2013-02-22 07:52:00,38.0,36.0,30.36,WSW,241,0.0,1.0,93,0.00,,,0.48,,2013-02-22 12:52:00,
2013-02-22 08:02:00,38.0,36.0,30.36,WSW,241,0.0,0.0,93,0.00,,,0.48,,2013-02-22 13:02:00,
2013-02-22 08:11:00,38.0,36.0,30.36,WSW,241,0.0,0.0,93,0.00,,,0.48,,2013-02-22 13:11:00,
2013-02-22 08:22:00,38.0,36.0,30.35,WSW,240,0.0,2.0,93,0.00,,,0.48,,2013-02-22 13:22:00,
2013-02-22 08:32:00,38.0,36.0,30.36,WSW,240,0.0,1.0,93,0.00,,,0.48,,2013-02-22 13:32:00,
2013-02-22 08:42:00,38.0,36.0,30.36,WSW,240,0.0,1.0,93,0.00,,,0.48,,2013-02-22 13:42:00,
2013-02-22 08:52:00,38.0,36.0,30.35,WSW,241,0.0,1.0,93,0.00,,,0.48,,2013-02-22 13:52:00,
2013-02-22 09:01:00,38.0,36.0,30.35,WSW,241,0.0,2.0,93,0.00,,,0.48,,2013-02-22 14:01:00,
2013-02-22 09:11:00,38.0,36.0,30.35,SW,229,0.0,2.0,93,0.00,,,0.48,,2013-02-22 14:11:00,
2013-02-22 09:21:00,38.0,36.0,30.35,SW,229,0.0,2.0,93,0.00,,,0.48,,2013-02-22 14:21:00,
2013-02-22 09:32:00,38.0,36.0,30.35,SW,229,0.0,2.0,93,0.00,,,0.48,,2013-02-22 14:32:00,
2013-02-22 09:42:00,38.0,36.0,30.36,SW,229,0.0,1.0,93,0.00,,,0.48,,2013-02-22 14:42:00,
2013-02-22 09:53:00,38.0,36.0,30.36,SW,229,0.0,1.0,93,0.00,,,0.48,,2013-02-22 14:53:00,
2013-02-22 10:01:00,37.0,35.0,30.36,SW,230,0.0,3.0,92,0.00,,,0.48,,2013-02-22 15:01:00,
2013-02-22 10:11:00,38.0,36.0,30.36,West,266,0.0,4.0,92,0.00,,,0.48,,2013-02-22 15:11:00,
2013-02-22 10:22:00,38.0,36.0,30.36,West,266,0.0,4.0,92,0.00,,,0.48,,2013-02-22 15:22:00,
2013-02-22 10:32:00,38.0,36.0,30.36,West,265,0.0,1.0,92,0.00,,,0.48,,2013-02-22 15:32:00,
2013-02-22 10:42:00,38.0,36.0,30.36,West,265,0.0,1.0,92,0.00,,,0.48,,2013-02-22 15:42:00,
2013-02-22 10:52:00,37.0,35.0,30.37,WSW,240,0.0,1.0,92,0.00,,,0.48,,2013-02-22 15:52:00,
2013-02-22 11:01:00,38.0,36.0,30.36,SW,231,0.0,1.0,92,0.00,,,0.48,,2013-02-22 16:01:00,
2013-02-22 11:12:00,38.0,36.0,30.35,SW,232,0.0,2.0,92,0.00,,,0.48,,2013-02-22 16:12:00,
2013-02-22 11:22:00,38.0,36.0,30.35,SW,232,0.0,2.0,92,0.00,,,0.48,,2013-02-22 16:22:00,
2013-02-22 11:32:00,38.0,36.0,30.35,West,267,0.0,1.0,92,0.00,,,0.48,,2013-02-22 16:32:00,
2013-02-22 11:42:00,38.0,36.0,30.35,West,267,0.0,1.0,92,0.00,,,0.48,,2013-02-22 16:42:00,
2013-02-22 11:52:00,38.0,36.0,30.35,SW,223,0.0,2.0,91,0.00,,,0.48,,2013-02-22 16:52:00,
2013-02-22 12:01:00,39.0,37.0,30.36,SW,223,0.0,2.0,91,0.00,,,0.48,,2013-02-22 17:01:00,
2013-02-22 12:11:00,39.0,37.0,30.36,SW,223,0.0,2.0,91,0.00,,,0.48,,2013-02-22 17:11:00,
2013-02-22 12:21:00,38.0,35.0,30.35,WSW,244,0.0,1.0,90,0.00,,,0.48,,2013-02-22 17:21:00,
2013-02-22 12:32:00,39.0,37.0,30.34,WSW,244,0.0,1.0,91,0.00,,,0.48,,2013-02-22 17:32:00,
2013-02-22 12:42:00,39.0,37.0,30.34,WSW,244,0.0,1.0,91,0.00,,,0.48,,2013-02-22 17:42:00,
2013-02-22 12:52:00,39.0,36.0,30.33,WSW,244,0.0,2.0,90,0.00,,,0.48,,2013-02-22 17:52:00,
2013-02-22 13:01:00,39.0,36.0,30.31,WSW,244,0.0,2.0,90,0.00,,,0.48,,2013-02-22 18:01:00,
2013-02-22 13:12:00,39.0,36.0,30.29,WSW,244,0.0,2.0,90,0.01,,,0.49,,2013-02-22 18:12:00,
2013-02-22 13:22:00,39.0,36.0,30.29,WSW,244,0.0,2.0,90,0.01,,,0.49,,2013-02-22 18:22:00,
2013-02-22 13:32:00,38.0,35.0,30.29,SW,230,0.0,2.0,90,0.01,,,0.49,,2013-02-22 18:32:00,
2013-02-22 13:42:00,38.0,35.0,30.29,SW,230,0.0,2.0,90,0.01,,,0.49,,2013-02-22 18:42:00,
2013-02-22 13:52:00,38.0,35.0,30.29,SW,226,0.0,2.0,90,0.01,,,0.49,,2013-02-22 18:52:00,
2013-02-22 14:01:00,38.0,36.0,30.30,SW,226,0.0,0.0,91,0.01,,,0.49,,2013-02-22 19:01:00,
2013-02-22 14:11:00,38.0,36.0,30.30,East,101,0.0,1.0,91,0.01,,,0.50,,2013-02-22 19:11:00,
2013-02-22 14:21:00,38.0,36.0,30.30,East,101,0.0,1.0,91,0.01,,,0.50,,2013-02-22 19:21:00,
2013-02-22 14:31:00,38.0,36.0,30.30,SW,234,0.0,1.0,92,0.02,,,0.51,,2013-02-22 19:31:00,
2013-02-22 14:41:00,38.0,36.0,30.29,SW,224,0.0,1.0,92,0.03,,,0.52,,2013-02-22 19:41:00,
2013-02-22 14:52:00,38.0,36.0,30.29,SW,224,0.0,1.0,92,0.03,,,0.52,,2013-02-22 19:52:00,
2013-02-22 15:01:00,38.0,36.0,30.29,SW,224,0.0,0.0,92,0.03,,,0.52,,2013-02-22 20:01:00,
2013-02-22 15:11:00,38.0,36.0,30.29,SW,224,0.0,0.0,92,0.03,,,0.52,,2013-02-22 20:11:00,
2013-02-22 15:21:00,38.0,36.0,30.28,SW,224,0.0,1.0,92,0.02,,,0.52,,2013-02-22 20:21:00,
2013-02-22 15:32:00,38.0,36.0,30.28,SW,224,0.0,1.0,93,0.01,,,0.52,,2013-02-22 20:32:00,
2013-02-22 15:42:00,38.0,36.0,30.28,SW,224,0.0,1.0,93,0.01,,,0.52,,2013-02-22 20:42:00,
2013-02-22 15:52:00,38.0,36.0,30.29,SSW,200,0.0,1.0,93,0.00,,,0.52,,2013-02-22 20:52:00,
2013-02-22 16:01:00,38.0,36.0,30.29,SSW,205,0.0,1.0,93,0.01,,,0.53,,2013-02-22 21:01:00,
2013-02-22 16:11:00,38.0,36.0,30.28,SSW,205,0.0,1.0,93,0.01,,,0.53,,2013-02-22 21:11:00,
2013-02-22 16:21:00,38.0,36.0,30.28,SSW,205,0.0,1.0,93,0.01,,,0.53,,2013-02-22 21:21:00,
2013-02-22 16:32:00,38.0,36.0,30.28,SSW,205,0.0,0.0,93,0.01,,,0.53,,2013-02-22 21:32:00,
2013-02-22 16:42:00,38.0,36.0,30.28,SSW,205,0.0,0.0,93,0.01,,,0.53,,2013-02-22 21:42:00,
2013-02-22 16:52:00,38.0,36.0,30.29,SW,232,0.0,1.0,93,0.01,,,0.53,,2013-02-22 21:52:00,
2013-02-22 17:01:00,38.0,36.0,30.28,SW,232,0.0,1.0,93,0.00,,,0.53,,2013-02-22 22:01:00,
2013-02-22 17:11:00,38.0,36.0,30.28,SW,232,0.0,1.0,93,0.00,,,0.53,,2013-02-22 22:11:00,
2013-02-22 17:21:00,38.0,36.0,30.27,SW,215,0.0,2.0,93,0.00,,,0.53,,2013-02-22 22:21:00,
2013-02-22 17:32:00,38.0,36.0,30.26,WSW,238,0.0,2.0,93,0.00,,,0.53,,2013-02-22 22:32:00,
2013-02-22 17:42:00,38.0,36.0,30.26,WSW,238,0.0,2.0,93,0.00,,,0.53,,2013-02-22 22:42:00,
2013-02-22 17:52:00,38.0,36.0,30.27,WSW,239,0.0,1.0,93,0.00,,,0.53,,2013-02-22 22:52:00,
2013-02-22 18:01:00,38.0,36.0,30.25,WSW,239,0.0,1.0,93,0.00,,,0.53,,2013-02-22 23:01:00,
2013-02-22 18:11:00,38.0,36.0,30.25,WSW,239,0.0,1.0,93,0.00,,,0.53,,2013-02-22 23:11:00,
2013-02-22 18:21:00,37.0,35.0,30.25,SW,217,0.0,1.0,93,0.01,,,0.54,,2013-02-22 23:21:00,
2013-02-22 18:32:00,37.0,35.0,30.25,SW,234,0.0,2.0,93,0.01,,,0.54,,2013-02-22 23:32:00,
2013-02-22 18:42:00,37.0,35.0,30.25,SW,234,0.0,2.0,93,0.01,,,0.54,,2013-02-22 23:42:00,
2013-02-22 18:52:00,37.0,35.0,30.26,SW,234,0.0,2.0,93,0.01,,,0.54,,2013-02-22 23:52:00,
2013-02-22 19:02:00,37.0,35.0,30.26,SW,233,0.0,1.0,93,0.01,,,0.54,,2013-02-23 00:02:00,
2013-02-22 19:11:00,37.0,35.0,30.27,SW,225,0.0,1.0,93,0.00,,,0.54,,2013-02-23 00:11:00,
2013-02-22 19:21:00,37.0,35.0,30.27,SW,225,0.0,1.0,93,0.00,,,0.54,,2013-02-23 00:21:00,
2013-02-22 19:32:00,37.0,35.0,30.27,SW,225,0.0,0.0,93,0.00,,,0.54,,2013-02-23 00:32:00,
2013-02-22 19:42:00,37.0,35.0,30.27,SW,225,0.0,0.0,93,0.00,,,0.54,,2013-02-23 00:42:00,
2013-02-22 19:52:00,37.0,35.0,30.26,SW,229,0.0,2.0,93,0.00,,,0.54,,2013-02-23 00:52:00,
2013-02-22 20:01:00,37.0,35.0,30.27,SW,229,0.0,1.0,93,0.00,,,0.54,,2013-02-23 01:01:00,
2013-02-22 20:11:00,37.0,35.0,30.27,SW,229,0.0,1.0,93,0.00,,,0.54,,2013-02-23 01:11:00,
2013-02-22 20:21:00,37.0,35.0,30.25,WSW,237,0.0,1.0,94,0.00,,,0.54,,2013-02-23 01:21:00,
2013-02-22 20:32:00,37.0,35.0,30.26,WSW,244,0.0,2.0,94,0.00,,,0.54,,2013-02-23 01:32:00,
2013-02-22 20:42:00,37.0,35.0,30.26,WSW,244,0.0,2.0,94,0.00,,,0.54,,2013-02-23 01:42:00,
2013-02-22 20:52:00,37.0,35.0,30.26,WSW,244,0.0,0.0,94,0.00,,,0.54,,2013-02-23 01:52:00,
2013-02-22 21:01:00,37.0,35.0,30.27,WSW,244,0.0,0.0,94,0.00,,,0.54,,2013-02-23 02:01:00,
2013-02-22 21:11:00,37.0,35.0,30.27,WSW,244,0.0,1.0,94,0.01,,,0.55,,2013-02-23 02:11:00,
2013-02-22 21:21:00,37.0,35.0,30.27,WSW,244,0.0,1.0,94,0.01,,,0.55,,2013-02-23 02:21:00,
2013-02-22 21:32:00,37.0,35.0,30.26,WSW,244,0.0,1.0,94,0.01,,,0.55,,2013-02-23 02:32:00,
2013-02-22 21:42:00,37.0,35.0,30.26,WSW,244,0.0,1.0,94,0.01,,,0.55,,2013-02-23 02:42:00,
2013-02-22 21:52:00,37.0,35.0,30.27,WSW,244,0.0,1.0,94,0.01,,,0.55,,2013-02-23 02:52:00,
2013-02-22 22:01:00,37.0,35.0,30.27,WSW,244,0.0,1.0,94,0.01,,,0.55,,2013-02-23 03:01:00,
2013-02-22 22:11:00,37.0,35.0,30.26,WSW,239,0.0,1.0,94,0.00,,,0.55,,2013-02-23 03:11:00,
2013-02-22 22:21:00,37.0,35.0,30.26,WSW,239,0.0,1.0,94,0.00,,,0.55,,2013-02-23 03:21:00,
2013-02-22 22:32:00,37.0,35.0,30.26,WSW,239,0.0,0.0,94,0.00,,,0.55,,2013-02-23 03:32:00,
2013-02-22 22:42:00,37.0,35.0,30.26,WSW,239,0.0,0.0,94,0.00,,,0.55,,2013-02-23 03:42:00,
2013-02-22 22:52:00,37.0,35.0,30.25,WSW,239,0.0,1.0,94,0.00,,,0.55,,2013-02-23 03:52:00,
2013-02-22 23:01:00,37.0,35.0,30.24,WSW,238,0.0,1.0,94,0.00,,,0.55,,2013-02-23 04:01:00,
2013-02-22 23:11:00,37.0,35.0,30.21,SW,231,0.0,2.0,94,0.00,,,0.55,,2013-02-23 04:11:00,
2013-02-22 23:21:00,37.0,35.0,30.21,SW,231,0.0,2.0,94,0.00,,,0.55,,2013-02-23 04:21:00,
2013-02-22 23:32:00,37.0,35.0,30.22,SW,223,0.0,1.0,94,0.00,,,0.55,,2013-02-23 04:32:00,
2013-02-22 23:42:00,37.0,35.0,30.22,SW,223,0.0,1.0,94,0.00,,,0.55,,2013-02-23 04:42:00,
2013-02-22 23:52:00,37.0,35.0,30.22,SW,225,0.0,0.0,94,0.00,,,0.52,,2013-02-23 04:52:00,